Zurück zum Katalog

STARLINK-37131

AktivKommunikationSSO
NORAD 68605·PAYLOAD·🇺🇸 United States

Gestartet Apr 5, 2026 von Vandenberg Space Force Base

Loading…

Nächste Überflüge (nächste 24 Stunden)

TLE

AktuellSource: CelesTrak SupGP

Epoche: Sep 14, 2026, 21:26 UTC

1 68605C 26073D   26257.89354167  .00078566  00000+0  24402-2 0  2570
2 68605  97.2849  95.9187 0001731  92.8467  25.9915 15.33382185    14

Verfolge STARLINK-37131 in Echtzeit mit AllMySat

Download on the App Store